This is the latest recevied weather packets stored in our database for station/object N5DGC. If no packets are shown the sender has not sent any weather packets the latest 10 day(s).
| Time | Temp. | Humidity | Pressure | Rain* | Wind** | Luminosity | Snow |
|---|---|---|---|---|---|---|---|
| 1778171313 | 16.11° C | 29% | 1240.3 hPa | 0 mm | - | 797 W/m² | - |
| 1778171009 | 15.56° C | 31% | 1240.5 hPa | 0 mm | - | 771 W/m² | - |
| 1778170706 | 15.56° C | 32% | 1240.4 hPa | 0 mm | - | 745 W/m² | - |
| 1778170403 | 15.56° C | 32% | 1240.4 hPa | 0 mm | - | 725 W/m² | - |
| 1778170099 | 15° C | 33% | 1240.7 hPa | 0 mm | - | 709 W/m² | - |
| 1778169795 | 14.44° C | 34% | 1240.7 hPa | 0 mm | - | 694 W/m² | - |
| 1778169491 | 13.89° C | 34% | 1240.7 hPa | 0 mm | - | 680 W/m² | - |
| 1778169187 | 13.89° C | 34% | 1240.7 hPa | 0 mm | - | 665 W/m² | - |
| 1778168884 | 13.89° C | 35% | 1240.5 hPa | 0 mm | - | 650 W/m² | - |
| 1778168581 | 13.33° C | 37% | 1240.8 hPa | 0 mm | - | 636 W/m² | - |
| 1778168278 | 12.78° C | 38% | 1240.9 hPa | 0 mm | - | 631 W/m² | - |
| 1778167974 | 12.78° C | 39% | 1241 hPa | 0 mm | - | 623 W/m² | - |
| 1778167671 | 12.78° C | 40% | 1240.8 hPa | 0 mm | - | 606 W/m² | - |
| 1778167368 | 12.22° C | 41% | 1241 hPa | 0 mm | - | 583 W/m² | - |
| 1778167063 | 11.67° C | 42% | 1240.9 hPa | 0 mm | - | 566 W/m² | - |
| 1778166760 | 11.67° C | 43% | 1240.9 hPa | 0 mm | - | 551 W/m² | - |
| 1778166457 | 11.11° C | 43% | 1240.9 hPa | 0 mm | - | 473 W/m² | - |
| 1778166154 | 10.56° C | 46% | 1241.1 hPa | 0 mm | - | 398 W/m² | - |
| 1778165850 | 10.56° C | 46% | 1241.1 hPa | 0 mm | - | 382 W/m² | - |
| 1778165546 | 10° C | 48% | 1241.1 hPa | 0 mm | - | 227 W/m² | - |
| 1778165244 | 9.44° C | 50% | 1241.1 hPa | 0 mm | - | 176 W/m² | - |
| 1778164941 | 8.89° C | 52% | 1241.4 hPa | 0 mm | - | 167 W/m² | - |
| 1778164638 | 8.89° C | 53% | 1241.4 hPa | 0 mm | - | 47 W/m² | - |
| 1778164335 | 8.33° C | 53% | 1241.2 hPa | 0 mm | - | 47 W/m² | - |
| 1778164030 | 8.33° C | 53% | 1241.1 hPa | 0 mm | - | 37 W/m² | - |
* Rain latest hour (hover to see other rain measurements)
** Current wind speed in m/s (hover to see current wind gust speed)